Regional Weather Roundup
Issued by NWS Newport/Morehead, NC

Current Version | Previous Version | Graphics & Text | Print | Product List | Glossary On
Versions: 1 2 3 4 5 6 7 8 9 10 11 12 13 14 15 16 17 18 19 20 21 22 23 24 25 26 27 28 29 30 31 32 33 34 35 36 37 38 39 40 41 42 43 44 45 46 47 48 49 50
000 ASUS42 KMHX 250713 RWRMHX WEATHER ROUNDUP FOR EASTERN NORTH CAROLINA NATIONAL WEATHER SERVICE NEWPORT/MOREHEAD CITY NC 300 AM EDT THU AUG 25 2016 NOTE: "FAIR" INDICATES FEW OR NO CLOUDS BELOW 12,000 FEET WITH NO SIGNIFICANT WEATHER AND/OR OBSTRUCTIONS TO VISIBILITY NCZ015>017-031-032-045>047-102-103-250800- NORTH COAST CITY SKY/WX TMP DP RH WIND PRES REMARKS EDENTON CLEAR N/A N/A N/A CALM 30.17F ELIZABETH CITY CLEAR 69 68 96 SW5 30.17F KITTY HAWK SUNNY 72 70 93 CALM 30.15F MANTEO CLEAR 68 68 99 CALM 30.16F $$ NCZ045>047-081-094-103-104-250800- CENTRAL COAST CITY SKY/WX TMP DP RH WIND PRES REMARKS FRISCO CLEAR 73 66 78 E5 30.15F $$ NCZ095-097-098-100-101-250800- SOUTHERN COAST CITY SKY/WX TMP DP RH WIND PRES REMARKS BEAUFORT CLEAR 71 70 96 CALM 30.15F CEDAR ISLAND NOT AVBL JACKSONVILLE PTCLDY 72 69 90 NW5 30.15F PINEY ISLAND NOT AVBL WILMINGTON PTCLDY 71 67 87 NW3 30.15F $$ NCZ011>013-027>030-043-044-078>080-089-090>093-098-250800- COASTAL PLAIN CITY SKY/WX TMP DP RH WIND PRES REMARKS AHOSKIE CLEAR 63 63 98 CALM 30.18F CLINTON PTCLDY 66 66 99 CALM 30.17F ELIZABETHTOWN PTCLDY 68 65 89 CALM 30.16F GOLDSBORO CLEAR 69 68 97 CALM 30.15F GREENVILLE CLEAR 68 68 100 CALM 30.17F HAVELOCK PTCLDY 72 69 90 CALM 30.16F KENANSVILLE NOT AVBL KINSTON CLEAR 67 65 96 CALM 30.17F NEW BERN CLEAR 71 70 96 CALM 30.16F FOG RICHLANDS CLEAR 68 66 93 CALM 30.17F ROCKY MOUNT CLEAR 63 63 100 CALM 30.17F WASHINGTON CLEAR 67 66 96 CALM 30.16F WHITEVILLE CLEAR 67 65 91 CALM 30.15F $$ AMZ130-135-150-152-154-156-158-170-250-252-270-ANZ085-086-088-633-658-670-250800- MARINE OBSERVATIONS STATION/POSITION TIME TEMP WIND PRES WAVE SWELL AIR SEA DIR/SP/G HT/PER HT/PER (UTC) (F) (DEG/KT/KT) (MB) (FT/S) (FT/S) CHESAPEAKE LIGHT NOT AVBL 64 E VA BEACH 0650 79 81 170/ 4/ 6 1021.0 2/10 2/10 DUCK 0600 77 78 180/ 4/ 5 1021.1 2 E DUCK 0611 78 N/A 3/11 2/11 OREGON INLET 0600 75 79 130/ 3/ 4 1021.3 13E OREGON INLT 0700 76 N/A 3/11 3/11 HATTERAS CG 0600 76 80 60/ 2/ 3 1021.1 DIAMOND BUOY 0650 81 84 100/ 10/ 12 1020.8 3/11 3/11 CAPE LOOKOUT 0700 80 90/ 9/ 10 1020.6 BEAUFORT LAB 0600 77 80 60/ 3/ 5 1021.0 30 SE NEW RVR IN 0608 81 84 110/ 10/ 14 1020.8 30 SE NEW RVR IN 0625 84 N/A 3/ 7 27 SE WRIGHTSVLE 0608 82 84 110/ 12/ 16 1020.8 5 SE WRIGHTSVLE NOT AVBL 225 S CAPE HAT 0650 82 85 70/ 17/ 21 1018.2 6/ 6 3/10 41 SE CHARLESTON 0650 82 84 50/ 10/ 14 1019.3 3/ 7 2/ 7 $$

USA.gov is the U.S. government's official web portal to all federal, state and local government web resources and services.